This demonstration page uses our WeatherBlox Daily Observations layout. Learn more.

Left ArrowRight Arrow

Hourly Observations for November 5, 2020

Temp ( °F °C ) Dew Point ( °F °C ) Humidity (%) Winds ( mph kmh ) Pressure ( in mb ) Visibility ( mi km ) Precip ( " mm )
12:51 am 00:51 Clear 57 13.9 37 2.8 47 47 VRB 5 7 30.08 1019 10 16 0.00 0.00
1:51 am 01:51 Clear 54 12.2 35 1.7 49 49 ESE 7 11 30.09 1019 10 16 0.00 0.00
2:51 am 02:51 Clear 55 12.8 35 1.7 47 47 SSE 13 20 30.09 1019 10 16 0.00 0.00
3:51 am 03:51 Clear 54 12.2 34 1.1 47 47 SSE 8 13 30.09 1019 10 16 0.00 0.00
4:51 am 04:51 Clear 56 13.3 34 1.1 44 44 SE 8 13 30.10 1019 10 16 0.00 0.00
5:51 am 05:51 Clear 55 12.8 34 1.1 45 45 SSE 12 19 30.13 1020 10 16 0.00 0.00
6:51 am 06:51 Sunny 53 11.7 34 1.1 48 48 SSE 9 15 30.16 1021 10 16 0.00 0.00
7:51 am 07:51 Sunny 66 18.9 32 0 28 28 SE 13 20 30.15 1021 10 16 0.00 0.00
8:51 am 08:51 Sunny 70 21.1 35 1.7 28 28 SE 9 15 30.14 1021 10 16 0.00 0.00
9:51 am 09:51 Sunny 75 23.9 36 2.2 24 24 SSE 13 20 30.14 1021 10 16 0.00 0.00
10:51 am 10:51 Sunny 78 25.6 34 1.1 20 20 ESE 7 11 30.12 1020 10 16 0.00 0.00
11:51 am 11:51 Sunny 81 27.2 35 1.7 19 19 VRB 7 11 30.09 1019 10 16 0.00 0.00
12:51 pm 12:51 Sunny 85 29.4 33 0.6 15 15 E 7 11 30.04 1017 10 16 0.00 0.00
1:51 pm 13:51 Sunny 89 31.7 27 -2.8 11 11 SSE 20 31 29.99 1016 10 16 0.00 0.00
2:51 pm 14:51 Sunny 89 31.7 24 -4.4 9 9 SE 20 31 29.97 1015 10 16 0.00 0.00
3:51 pm 15:51 Sunny 88 31.1 26 -3.3 10 10 ESE 16 26 29.96 1014 10 16 0.00 0.00
4:51 pm 16:51 Sunny 85 29.4 27 -2.8 12 12 SE 15 24 29.94 1014 10 16 0.00 0.00
5:51 pm 17:51 Clear 80 26.7 27 -2.8 14 14 ESE 13 20 29.96 1015 10 16 0.00 0.00
6:51 pm 18:51 Clear 76 24.4 25 -3.9 15 15 ESE 10 17 29.98 1015 10 16 0.00 0.00
7:51 pm 19:51 Clear 73 22.8 26 -3.3 17 17 SSE 9 15 29.97 1015 10 16 0.00 0.00
8:51 pm 20:51 Clear 66 18.9 26 -3.3 22 22 SE 6 9 29.97 1015 10 16 0.00 0.00
9:51 pm 21:51 Clear 68 20 26 -3.3 21 21 SSE 10 17 29.95 1014 10 16 0.00 0.00
10:51 pm 22:51 Clear 69 20.6 25 -3.9 19 19 SE 12 19 29.93 1014 10 16 0.00 0.00
11:51 pm 23:51 Clear 64 17.8 25 -3.9 23 23 ESE 8 13 29.93 1014 10 16 0.00 0.00

Powered by AerisWeather